Regional Weather Roundup
Issued by NWS

Home | Current Version | Previous Version | Text Only | Print | Product List | Glossary On
Versions: 1 2 3 4 5 6 7 8 9 10 11 12 13 14 15 16 17 18 19 20 21 22 23 24 25 26 27 28 29 30 31 32 33 34 35 36 37 38 39 40 41 42 43 44 45 46 47 48 49 50
000
ASUS42 KTBW 241316
RWRFL
FLORIDA REGIONAL WEATHER ROUNDUP
NATIONAL WEATHER SERVICE TAMPA BAY RUSKIN FL
800 AM EST FRI NOV 24 2017

NOTE: "FAIR" INDICATES FEW OR NO CLOUDS BELOW 12,000 FEET WITH NO
SIGNIFICANT WEATHER AND/OR OBSTRUCTIONS TO VISIBILITY.

FLZ001>010-012>015-112-114-115-241400-
PANHANDLE FLORIDA

CITY           SKY/WX    TMP DP  RH WIND       PRES   REMARKS
PENSACOLA      CLEAR     46  38  73 NE3       29.99S
PENSACOLA NAS  PTCLDY    44  36  73 N3        29.99S
MILTON NAS     PTCLDY    41  38  89 N5        30.00  WCI  38
CRESTVIEW      CLEAR     40  38  93 CALM      30.01S
DUKE FIELD     FAIR      40  38  90 NE3       29.99R
VALPARAISO     PTCLDY    46  41  82 CALM      29.99R
MARY ESTHER    CLEAR     45  41  86 CALM      29.99R
PANAMA CITY    FAIR      50  49  96 NE6       29.99R
TYNDALL AFB    CLEAR     55  53  94 NE8       30.00R
APALACHICOLA   CLEAR     56  56 100 NE8       29.99R

STATION/POSITION SKY/WX   TEMP    WIND        PRES    WAVE   SWELL
                          AIR SEA DIR/SP/G            HT/PER HT/PER
                          (F)     (DEG/KT/KT) (MB)    (FT/S) (FT/S)
29.2N   88.2W              63 77   20/  8/ 12 1016.0R   3/ 5   2/ 5
28.8N   86.0W              67 76   50/ 14/ 17 1013.7    4/ 6
PANAMA CITY BEAC           55 69   60/  7/ 10 1015.9R
TOWER C                    59      30/ 16/ 18 1015.7R

$$
FLZ011-016>038-118-127-128-134-139-239-241400-
NORTH FLORIDA

CITY           SKY/WX    TMP DP  RH WIND       PRES   REMARKS
MARIANNA       CLEAR     47  46  97 NE3       30.01R
TALLAHASSEE    PTCLDY    53  51  93 N3        30.00R
PERRY          MOCLDY    53  51  93 N8        29.99R
LIVE OAK       PTCLDY    52  52 100 N6        29.99R
CROSS CITY     CLOUDY    55  53  93 N10       30.00R
LAKE CITY      CLOUDY    50  48  93 N12       29.96R
GAINESVILLE    CLOUDY    53  52  96 N10       29.96R
WILLISTON      CLOUDY    57  57 100 NW6       29.93R
PALATKA        LGT RAIN  55  55 100 N10       29.91R
MAYPORT NAS    CLOUDY    54  54 100 N10       29.92R FOG
JACKSONVILLE   CLOUDY    53  50  89 N10       29.94R
JAX NAS        CLOUDY    54  52  93 N20       29.94R
JAX CECIL      CLOUDY    52  52 100 N8        29.94R
ST AUGUSTINE   LGT RAIN  55  55 100 N17       29.91R FOG
PALM COAST     DRIZZLE   57  55  94 NW9       29.88R

STATION/POSITION SKY/WX   TEMP    WIND        PRES    WAVE   SWELL
                          AIR SEA DIR/SP/G            HT/PER HT/PER
                          (F)     (DEG/KT/KT) (MB)    (FT/S) (FT/S)
SHELL POINT      NOT AVBL
KEATON BEACH               54      10/  7/ 11 1014.5R
CEDAR KEY                  56     360/  6/  9 1013.5R
FERNANDINA                 54 64  340/  9/ 14 1014.8R
30.7N   81.3W                 66                N/A     6/ 6
MAYPORT                    54 66  350/  9/ 15 1013.4R
31.4N   80.9W              58 66   20/ 23/ 27 1013.1R   6/ 9   3/ 9
ST AUGUSTINE               60 67  350/ 29/ 34 1011.6R

$$
FLZ040-043>046-052-053-057-058-063-144-241400-
INTERIOR CENTRAL FLORIDA

CITY           SKY/WX    TMP DP  RH WIND       PRES   REMARKS
OCALA          RAIN      57  56  96 NW8       29.92R FOG
THE VILLAGES     N/A     57  57 100 E6        29.81S FOG
LEESBURG       CLOUDY    59  59 100 N12       29.91R FOG
SANFORD        CLOUDY    60  58  92 NW13G22   29.87R
ORLANDO EXEC   CLOUDY    62  60  93 NW7       29.88R
ORLANDO INTL   DRIZZLE   61  61 100 NW10      29.88R
KISSIMMEE      CLOUDY    62  61  96 N8        29.89R FOG
WINTER HAVEN   CLOUDY    63  61  93 N13       29.89R
SEBRING        CLOUDY    69  66  88 W5        29.87R
OKEECHOBEE     CLOUDY    66  64  94 SW3       29.86R

$$
FLZ041-047-054-059-064-141-147-241400-
EAST CENTRAL FLORIDA

CITY           SKY/WX    TMP DP  RH WIND       PRES   REMARKS
ORMOND BEACH   LGT RAIN  59  59 100 NW12G17   29.87R FOG
DAYTONA BEACH  CLOUDY    61  61 100 NW14G20   29.86R
DELAND         CLOUDY    59  57  94 N13       29.88R
NEW SMYRNA BEA RAIN      64  63  94 N12G18    29.85R FOG
JFK SPACE CTR  CLOUDY    67  67 100 NW10      29.83R
TITUSVILLE     CLOUDY    66  64  94 NW13      29.84
CAPE CANAVERAL CLOUDY    68  64  88 NW12      29.82R
PATRICK AFB    CLOUDY    67  67 100 W10       29.84R
MELBOURNE      CLOUDY    69  67  93 W9        29.85R FOG
VERO BEACH     CLOUDY    68  67  96 SW7       29.85R
FT PIERCE      MOSUNNY   68  67  96 SW7       29.86R
STUART         PTSUNNY   66  66 100 W7        29.88R

STATION/POSITION SKY/WX   TEMP    WIND        PRES    WAVE   SWELL
                          AIR SEA DIR/SP/G            HT/PER HT/PER
                          (F)     (DEG/KT/KT) (MB)    (FT/S) (FT/S)
28.5N   80.2W              71 78  240/ 12/ 16 1009.8R   5/ 9   5/ 9
TRIDENT PIER                      260/  2/  6   N/A
27.5N   80.2W                 78                N/A     3/ 9

$$
FLZ050-056-061-142-242-148-248-149-249-151-251-155-255-
160-260-241400-
WEST CENTRAL FLORIDA

CITY           SKY/WX    TMP DP  RH WIND       PRES   REMARKS
CRYSTAL RIVER  HVY RAIN  57  55  94 N7        29.93R
INVERNESS      DRIZZLE   57  57 100 N6        29.92R
BROOKSVILLE    CLOUDY    59  57  93 N5        29.93R
CLEARWATER AIR CLOUDY    61  61 100 N7        29.91R
ST PETE CLEARW CLOUDY    63  61  93 N10       29.91R
TAMPA INTL     CLOUDY    63  61  93 N12       29.91R
TAMPA EXEC     CLOUDY    63  61  94 N6        29.91R
PLANT CITY     CLOUDY    63  61  94 N8        29.91R
MACDILL AFB    CLOUDY    63  61  94 N3        29.91R
PETER O KNIGHT   N/A    N/A N/A N/A N7        29.90R HAZE
ST PETERSBURG  CLOUDY    64  62  93 N9        29.88R FOG
SARASOTA       CLOUDY    64  64 100 N8        29.88R FOG
VENICE         FAIR      68  66  94 NW6       29.90R

STATION/POSITION SKY/WX   TEMP    WIND        PRES    WAVE   SWELL
                          AIR SEA DIR/SP/G            HT/PER HT/PER
                          (F)     (DEG/KT/KT) (MB)    (FT/S) (FT/S)
27.3N   84.2W                 77                N/A     5/ 6
CLEARWATER BEACH           62 69  360/ 16/ 17 1012.9R
MIDDLE TAMPA BAY           64     360/ 14/ 17 1012.2R
VENICE                     67 71  360/  9/ 11 1012.2R

$$
FLZ066-069-070-075>078-162-262-165-265-241400-
SOUTHWEST FLORIDA AND KEYS

CITY           SKY/WX    TMP DP  RH WIND       PRES   REMARKS
PUNTA GORDA    PTSUNNY   68  65  90 W12       29.90R
FT MYERS       SUNNY     70  67  90 W5        29.88R
SOUTHWEST INTL SUNNY     68  68 100 W3        29.88R
NAPLES         PTSUNNY   72  67  84 NW8       29.88R
MARCO ISLAND   PTSUNNY   71  68  90 NW3       29.89R
IMMOKALEE      FAIR      70  68  94 W6        29.89R
MARATHON       MOSUNNY   75  71  87 W3        29.88R
KEY WEST NAS   PTSUNNY   74  74 100 NW8       29.89R
KEY WEST INTL  MOSUNNY   76  72  87 NW8       29.89R

STATION/POSITION SKY/WX   TEMP    WIND        PRES    WAVE   SWELL
                          AIR SEA DIR/SP/G            HT/PER HT/PER
                          (F)     (DEG/KT/KT) (MB)    (FT/S) (FT/S)
NAPLES                        75  320/ 11/ 13 1011.7R
DRY TORTUGAS               76     350/  6/  7 1012.7R
SAND KEY                   75                 1012.8R
MOLASSES REEF              76 80  250/  6/  7 1011.6R

$$
FLZ067-068-071>074-168-172>174-241400-
SOUTHEAST FLORIDA

CITY           SKY/WX    TMP DP  RH WIND       PRES   REMARKS
W PALM BEACH   PTSUNNY   72  66  81 W8        29.87R
FT LAUDER-EXEC MOSUNNY   71  71 100 W7          N/A
FT LAUDERDALE  PTSUNNY   72  71  97 W7        29.87R
POMPANO BEACH  CLOUDY    72  71  97 W8        29.87R
PEMBROKE PINES PTSUNNY   72  70  93 W6        29.89R
OPA LOCKA      PTSUNNY   73  71  93 W3        29.88R
MIAMI          PTSUNNY   74  71  91 SW6       29.88R
WEST KENDALL   PTSUNNY   72  69  90 SW6       29.87R
HOMESTEAD      MOSUNNY   71  71 100 W5        29.87R

STATION/POSITION SKY/WX   TEMP    WIND        PRES    WAVE   SWELL
                          AIR SEA DIR/SP/G            HT/PER HT/PER
                          (F)     (DEG/KT/KT) (MB)    (FT/S) (FT/S)
PORT EVERGLADES            72     240/  3/  7 1011.2R
VIRGINIA KEY               75 77  220/ 10/ 11 1011.4R
LAKE WORTH                 71 80  250/  5/  9 1012.1R
FOWEY ROCKS                74 79  210/ 11/ 12 1011.5R
SETTLEMENT POINT           77     230/ 14/ 16 1011.1R

$$




USA.gov is the U.S. government's official web portal to all federal, state and local government web resources and services.